Location: Unspecified
(0.0000°N, 0.0000°E)
Time: 07:50:22
(UTC+00:00)

N. Korean satellite - Pass Details

Date: 27 June 2017
Orbit: 459 x 517 km, 97.2° (Epoch: 16 October)

Event Time Altitude Azimuth Distance (km) Brightness Sun altitude
Rises 18:19:46 0° 160° (SSE) 2,636 9.9 -3.8°
Reaches altitude 10° 18:21:56 10° 154° (SSE) 1,742 8.9 -4.3°
Maximum altitude 18:25:33 47° 79° (E) 679 7.0 -5.1°
Drops below altitude 10° 18:29:07 10° 4° (N) 1,710 9.6 -5.9°
Sets 18:31:14 0° 359° (N) 2,582 10.6 -6.4°
